Terminal Aerodrome Forecast
Issued by NWS Denver/Boulder, CO

Home | Current Version | Previous Version | Text Only | Print | Product List | Glossary On
Versions: 1 2 3 4 5 6 7 8 9 10 11 12 13 14 15 16 17 18 19 20 21 22 23 24 25 26 27 28 29 30 31 32 33 34 35 36 37 38 39 40 41 42 43 44 45 46 47 48 49 50
000
FTUS45 KBOU 202331
TAFDEN
TAF
KDEN 202331Z 2100/2206 15012G19KT P6SM SCT070 BKN120
      TEMPO 2100/2102 VRB20G35KT -TSRA BKN070CB
     FM210200 04010KT P6SM SCT080 BKN120
     FM210300 09007KT P6SM SCT120 BKN200
     FM210430 14010KT P6SM SCT120 BKN200
     FM210600 20010KT P6SM SCT120 SCT200
     FM211500 VRB05KT P6SM FEW120 FEW200
     FM211800 12005KT P6SM FEW080 SCT120
     FM212100 16009KT P6SM SCT080 BKN120 PROB30 2121/2201 VRB15G30KT
      -TSRA BKN070CB
     FM220300 18010KT P6SM SCT080 BKN120=

USA.gov is the U.S. government's official web portal to all federal, state and local government web resources and services.